Weather History for KFSM - December, 2012

Change the Weather History Date:

Monday, December 3, 2012

  Actual Average Record
Temperature  
Mean Temperature 68 °F 44 °F  
Max Temperature 80 °F 55 °F 80 °F (2012)
Min Temperature 56 °F 34 °F 15 °F (1895)
Degree Days  
Heating Degree Days 0 21  
Month to date heating degree days 0 61  
Since 1 July heating degree days 512 626  
Cooling Degree Days 2    
Growing Degree Days 18 (Base 50)    
Moisture  
Dew Point 56 °F    
Average Humidity 66    
Maximum Humidity 93    
Minimum Humidity 39    
Precipitation  
Precipitation 0.00 in 0.12 in 1.64 in (1973)
Month to date precipitation 0.00 0.38  
Year to date precipitation 31.19 42.55  
Sea Level Pressure  
Sea Level Pressure 29.95 in    
Wind  
Wind Speed 7 mph (SSE)    
Max Wind Speed 25 mph    
Max Gust Speed 33 mph    
Visibility 10 miles    
Events      
T = Trace of Precipitation, MM = Missing Value Source: NWS Daily Summary

Daily Weather History Graph

Daily Weather History Graph

Search for Another Location

Airport or City:

Trip Planner

Search our weather history database for the weather conditions in past years. The results will help you decide how hot, cold, wet, or windy it might be!

Date:

Astronomy

Dec. 03, 2012 Rise Set
Actual Time 7:10 AM CST 5:04 PM CST
Civil Twilight 6:42 AM CST 5:32 PM CST
Nautical Twilight 6:10 AM CST 6:04 PM CST
Astronomical Twilight 5:39 AM CST 6:35 PM CST
Moon 9:46 PM CST 10:38 AM CST
Length of Visible Light 10h 50m
Length of Day
9h 54m
Waning Gibbous, 78% of the Moon is Illuminated
Dec 3
Waning Gibbous
Dec 6
Last Quarter
Dec 13
New
Dec 19
First Quarter
Dec 28
Full

Hourly Weather History & Observations

Time (CST) Temp. Heat Index Dew Point Humidity Pressure Visibility Wind Dir Wind Speed Gust Speed Precip Events Conditions
12:53 AM 62.1 °F - 57.9 °F 86% 30.00 in 10.0 mi Calm Calm - N/A   Partly Cloudy
1:53 AM 59.0 °F - 55.9 °F 90% 29.99 in 10.0 mi Calm Calm - N/A   Clear
2:53 AM 59.0 °F - 55.9 °F 90% 29.99 in 10.0 mi NNE 5.8 mph - N/A   Clear
3:53 AM 59.0 °F - 55.9 °F 90% 29.98 in 10.0 mi Calm Calm - N/A   Clear
4:53 AM 57.9 °F - 55.0 °F 90% 29.98 in 10.0 mi East 3.5 mph - N/A   Scattered Clouds
5:53 AM 59.0 °F - 55.4 °F 88% 29.99 in 10.0 mi East 4.6 mph - N/A   Overcast
6:53 AM 57.0 °F - 55.0 °F 93% 29.98 in 9.0 mi Calm Calm - N/A   Clear
7:53 AM 60.1 °F - 55.0 °F 83% 29.98 in 10.0 mi Calm Calm - N/A   Clear
8:53 AM 66.9 °F - 57.9 °F 73% 29.99 in 10.0 mi Calm Calm - N/A   Clear
9:53 AM 73.0 °F - 57.0 °F 57% 29.99 in 10.0 mi SSW 13.8 mph 18.4 mph N/A   Clear
10:53 AM 75.9 °F - 54.0 °F 46% 29.99 in 10.0 mi SSW 18.4 mph 28.8 mph N/A   Clear
11:53 AM 77.0 °F - 53.1 °F 43% 29.94 in 10.0 mi SSW 19.6 mph 29.9 mph N/A   Clear
12:53 PM 78.1 °F - 54.0 °F 43% 29.91 in 10.0 mi SSW 12.7 mph 26.5 mph N/A   Clear
1:53 PM 79.0 °F - 54.0 °F 42% 29.89 in 10.0 mi South 18.4 mph 26.5 mph N/A   Partly Cloudy
2:53 PM 80.1 °F 80.0 °F 54.0 °F 40% 29.88 in 10.0 mi South 17.3 mph 23.0 mph N/A   Partly Cloudy
3:53 PM 79.0 °F - 53.1 °F 40% 29.87 in 10.0 mi SSW 17.3 mph 27.6 mph N/A   Clear
4:53 PM 75.9 °F - 54.0 °F 46% 29.87 in 10.0 mi South 6.9 mph - N/A   Clear
5:53 PM 72.0 °F - 55.0 °F 55% 29.90 in 10.0 mi SSE 4.6 mph - N/A   Clear
6:53 PM 71.1 °F - 57.9 °F 63% 29.92 in 10.0 mi SSE 6.9 mph - N/A   Clear
7:53 PM 69.1 °F - 57.9 °F 68% 29.95 in 10.0 mi SE 3.5 mph - N/A   Overcast
8:53 PM 68.0 °F - 57.9 °F 70% 29.97 in 10.0 mi Calm Calm - N/A   Overcast
9:53 PM 68.0 °F - 57.9 °F 70% 29.97 in 10.0 mi SE 3.5 mph - N/A   Partly Cloudy
10:53 PM 64.9 °F - 57.9 °F 78% 29.96 in 10.0 mi ESE 3.5 mph - N/A   Clear
11:53 PM 62.6 °F - 57.2 °F 82% 29.97 in 10.0 mi East 4.6 mph - N/A   Clear